GW4768 Weather Reports


Display with metric or nautical units.
time (UTC)temp
F
wind
direction
speed
MPH
gust
MPH
rain 1hr
in
rain 24hr
in
rain mn
in
humidity
%
barometer
mb
20260506004542 57 360 17.0 24.0 0.00 0.00 0.00 29 1014.6
20260506003032 57 338 17.0 26.0 0.00 0.00 0.00 29 1014.5
20260506001528 57 5 19.0 25.0 0.00 0.00 0.00 29 1014.5
20260506000024 58 9 13.0 23.0 0.00 0.00 0.00 33 1014.5
20260505234522 59 19 14.0 22.0 0.00 0.00 0.00 32 1014.5
20260505231522 59 24 13.0 21.0 0.00 0.00 0.00 33 1014.5
20260505230013 59 5 12.0 20.0 0.00 0.00 0.00 34 1014.5
20260505224532 59 19 11.0 19.0 0.00 0.00 0.00 32 1014.5
20260505223024 59 40 13.0 20.0 0.00 0.00 0.00 32 1014.5
20260505221526 59 5 12.0 18.0 0.00 0.00 0.00 31 1014.7
20260505214522 59 13 10.0 18.0 0.00 0.00 0.00 32 1014.7
20260505213022 59 360 6.0 18.0 0.00 0.00 0.00 30 1014.8
20260505211522 59 28 9.0 15.0 0.00 0.00 0.00 32 1014.8
20260505210018 58 10 7.0 13.0 0.00 0.00 0.00 33 1014.9
20260505204515 58 17 9.0 19.0 0.00 0.00 0.00 30 1014.8
20260505203024 59 360 9.0 15.0 0.00 0.00 0.00 32 1014.9
20260505201532 58 15 7.0 14.0 0.00 0.00 0.00 30 1015.1
20260505200008 58 17 5.0 16.0 0.00 0.00 0.00 31 1015.1
20260505194504 58 55 6.0 12.0 0.00 0.00 0.00 31 1015.1
20260505193023 57 20 5.0 11.0 0.00 0.00 0.00 31 1015.3
20260505191526 57 360 7.0 11.0 0.00 0.00 0.00 31 1015.4
20260505190034 56 352 7.0 13.0 0.00 0.00 0.00 36 1015.6
20260505184526 56 24 3.0 12.0 0.00 0.00 0.00 35 1015.8
20260505183020 55 37 8.0 15.0 0.00 0.00 0.00 40 1016.0
20260505181516 54 61 6.0 12.0 0.00 0.00 0.00 45 1016.0
20260505180009 53 59 3.0 11.0 0.00 0.00 0.00 42 1016.3
20260505174510 53 19 5.0 13.0 0.00 0.00 0.00 44 1016.3
20260505173026 52 19 4.0 8.0 0.00 0.00 0.00 48 1016.4
20260505171525 51 345 5.0 8.0 0.00 0.00 0.00 50 1016.5
20260505170024 50 41 3.0 11.0 0.00 0.00 0.00 51 1016.6
20260505164523 50 5 3.0 9.0 0.00 0.00 0.00 52 1016.6
20260505163016 49 352 5.0 9.0 0.00 0.00 0.00 54 1016.7
20260505161518 48 352 4.0 8.0 0.00 0.00 0.00 54 1016.7
20260505153034 47 302 3.0 7.0 0.00 0.00 0.00 53 1016.6
20260505151528 47 17 3.0 4.0 0.00 0.00 0.00 52 1016.6
20260505124525 37 119 5.0 13.0 0.00 0.00 0.00 69 1015.7
20260505123022 37 119 8.0 12.0 0.00 0.00 0.00 71 1015.6
20260505121521 37 126 8.0 10.0 0.00 0.00 0.00 71 1015.5
20260505120033 38 117 9.0 13.0 0.00 0.00 0.00 69 1015.5
20260505114516 38 123 7.0 9.0 0.00 0.00 0.00 67 1015.5
20260505101524 39 132 8.0 10.0 0.00 0.00 0.00 67 1015.4
20260505100028 41 116 7.0 9.0 0.00 0.00 0.00 64 1015.4
20260505094519 41 153 3.0 5.0 0.00 0.00 0.00 62 1015.4
20260505093016 42 148 1.0 2.0 0.00 0.00 0.00 61 1015.4
20260505091512 43 223 1.0 3.0 0.00 0.00 0.00 60 1015.6
20260505090012 44 221 1.0 5.0 0.00 0.00 0.00 60 1015.7
20260505084512 44 216 0.0 3.0 0.00 0.00 0.00 60 1015.7
20260505083042 44 211 0.0 3.0 0.00 0.00 0.00 59 1015.8
20260505081527 44 214 3.0 4.0 0.00 0.00 0.00 60 1015.9
20260505080034 44 188 0.0 2.0 0.00 0.00 0.00 60 1016.0
20260505074520 45 167 0.0 3.0 0.00 0.00 0.00 59 1015.8
20260505073032 46 142 1.0 2.0 0.00 0.00 0.00 58 1015.7
20260505071539 46 333 0.0 2.0 0.00 0.00 0.00 58 1015.7
20260505070012 46 329 0.0 5.0 0.00 0.00 0.00 58 1015.5
20260505064524 47 342 2.0 5.0 0.00 0.00 0.00 58 1015.4
20260505063035 47 69 3.0 5.0 0.00 0.00 0.00 57 1015.1
20260505061528 48 26 2.0 7.0 0.00 0.00 0.00 56 1014.9
20260505060048 48 47 3.0 4.0 0.00 0.00 0.00 57 1014.8
20260505054526 48 66 4.0 7.0 0.00 0.00 0.00 56 1014.5
20260505053020 49 5 4.0 9.0 0.00 0.00 0.00 56 1014.4
20260505041531 52 9 6.0 11.0 0.00 0.00 0.00 50 1014.0
20260505040027 54 9 8.0 15.0 0.00 0.00 0.00 47 1013.8
20260505034525 55 352 8.0 13.0 0.00 0.00 0.00 47 1013.5
20260505033022 55 352 7.0 11.0 0.00 0.00 0.00 47 1013.2
20260505031518 56 352 8.0 13.0 0.00 0.00 0.00 47 1013.0
20260505030028 57 318 7.0 13.0 0.00 0.00 0.00 45 1012.5
20260505024515 57 321 6.0 13.0 0.00 0.00 0.00 45 1012.3
20260505023015 58 317 4.0 11.0 0.00 0.00 0.00 44 1012.0
20260505020008 60 343 11.0 17.0 0.00 0.00 0.00 42 1011.6
20260505014511 61 332 11.0 19.0 0.00 0.00 0.00 42 1011.3
20260505013034 61 325 12.0 18.0 0.00 0.00 0.00 41 1011.2
20260505011530 62 346 9.0 19.0 0.00 0.00 0.00 42 1011.2
20260505010022 62 350 13.0 18.0 0.00 0.00 0.00 41 1011.1